{"data":{"norad_id":58276,"intl_designator":"2023-174W","name":"GENMAT-1","alt_names":[],"object_type":"PAYLOAD","status":"ACTIVE","operator":null,"country":"US","launch_date":"2023-11-11","launch_site_code":"AFWTR","launch_vehicle":null,"mission":null,"orbit_class":"UNKNOWN","rcs_meters":null,"size_class":null,"mass_kg":null,"dimensions":null,"purposes":[],"wikipedia_slug":null,"has_3d_model":false,"image_url":null,"decayed_at":null,"tle_current":{"epoch":"2026-09-21T18:26:25.283616Z","epoch_age_seconds":129747,"freshness":"FRESH","line1":"1 58276U 23174W   26264.76834819  .00007035  00000+0  20191-3 0  9991","line2":"2 58276  97.3613 342.5467 0006065 184.3413 175.7780 15.36159755159794","mean_motion":15.36159755,"eccentricity":0.0006065,"inclination_deg":97.3613,"raan_deg":342.5467,"arg_perigee_deg":184.3413,"mean_anomaly_deg":175.778,"bstar":0.00020191,"rev_number":15979,"period_min":93.740250342647,"perigee_km":453.33207076737,"apogee_km":461.62367160612,"semimajor_km":6835.6148711867,"source":"CELESTRAK","updated_at":"2026-09-22T09:00:26.576708Z"}}}